Voltar ao catálogo

SL-8 R/B

AtivoLEO
NORAD 3131·ROCKET BODY·🇷🇺 Russia

Lançado Feb 20, 1968 de Plesetsk Cosmodrome

Loading…

Próximas Passagens (próximas 24 horas)

TLE

AtualizadoSource: Space-Track

Época: Sep 14, 2026, 05:10 UTC

1 03131U 68011B   26257.21534249  .00000220  00000-0  61137-3 0  9991
2 03131  74.0541 338.8633 0014081 167.9408 192.2021 13.18038159817084

Acompanhe SL-8 R/B em tempo real com AllMySat

Download on the App Store